Helicity
23 -16 -40 -22 2 33 78 44 70 -43 20 27 25 -2 -5 44 62 69 111 100 105 129
31 -1 -34 -53 -41 -50 -36 -26 1 -23 -51 -49 -98 -89 -55 20 53 65 76 95 142 125
114 79 35 -10 -28 -42 -87 -106 -127 -137 -71 -40 -24 -29 -15 21 44 41 77 136 200 131
183 174 148 98 49 45 44 17 1 -20 -29 -39 -20 9 23 9 18 38 80 177 212 163
191 220 230 182 176 160 166 166 153 129 96 82 75 126 114 70 61 103 100 187 167 132
254 215 200 178 132 99 90 108 82 126 115 122 156 204 204 150 149 232 158 199 210 180
322 332 259 185 165 152 132 170 156 196 90 98 148 185 220 189 250 177 167 222 195 239
235 268 248 211 166 130 110 147 178 221 104 -91 39 196 234 234 170 205 218 236 254 267
148 184 193 203 197 156 116 96 123 157 63 84 170 233 240 257 227 240 308 369 399 395
129 140 125 109 123 135 114 102 121 139 147 170 183 190 208 253 251 313 344 447 528 543
150 130 125 134 126 105 87 113 159 171 174 217 246 230 292 341 374 432 462 508 549 561
172 141 158 168 213 297 264 258 263 265 271 280 251 297 394 464 493 562 587 612 560 470
179 164 256 325 328 296 298 294 292 311 275 269 334 370 429 479 540 633 657 614 572 461
325 338 341 349 356 358 366 380 401 439 415 401 416 426 453 470 525 583 546 484 407 388
Wind_Speed
42 47 48 53 47 48 50 46 27 34 50 76 68 58 54 54 56 53 47 41 45 43
36 42 44 46 43 37 34 30 27 27 29 35 39 51 56 61 65 57 48 43 42 49
31 35 38 40 44 43 39 35 35 34 37 44 46 43 46 49 58 53 53 51 45 44
28 31 34 37 39 39 34 33 34 37 38 38 38 39 39 44 54 55 55 50 51 48
27 29 33 38 39 37 39 38 41 39 42 46 45 53 48 48 47 54 58 45 53 46
30 34 37 39 34 32 28 29 31 35 44 48 43 52 65 73 54 54 58 52 48 39
28 33 35 34 34 33 31 27 26 28 37 65 51 49 67 63 61 51 53 53 43 36
20 23 27 30 31 30 32 30 28 23 25 32 37 36 32 37 46 50 40 37 36 33
14 16 22 25 28 30 31 32 29 27 25 27 32 32 29 30 31 30 31 30 29 29
15 20 22 22 22 25 28 29 30 31 33 35 37 34 34 31 31 30 30 30 27 30
19 16 16 14 15 18 20 23 25 28 31 34 37 31 27 25 28 27 26 26 25 26
23 20 19 18 20 23 23 24 26 27 26 28 29 20 20 21 23 23 24 24 25 21
23 22 24 25 26 30 28 29 28 30 29 26 23 19 19 20 19 21 22 21 25 32
23 21 22 29 30 29 29 29 29 28 29 25 20 20 19 19 22 20 21 25 28 31
Wind_Direction
162 165 168 172 174 177 180 182 196 195 244 248 256 264 271 278 284 289 290 287 290 296
167 172 176 178 180 182 190 199 214 225 233 250 257 269 272 276 281 287 288 288 289 291
179 180 182 185 190 194 199 208 213 225 254 261 265 264 269 276 283 285 286 286 283 292
197 197 196 197 199 205 214 221 228 227 237 243 253 260 263 273 282 283 282 281 281 285
211 211 210 208 209 214 218 221 224 234 247 259 263 271 271 273 279 281 279 277 285 287
223 216 212 213 220 217 226 226 235 243 251 261 261 272 277 279 279 285 276 285 286 290
224 218 218 220 223 231 231 234 243 249 245 266 275 280 279 275 280 281 280 286 288 290
234 234 238 241 236 238 241 245 258 270 243 246 271 281 282 282 281 281 282 287 289 293
256 255 248 251 250 248 243 246 255 266 259 258 270 270 266 274 274 273 277 282 292 297
257 272 280 275 262 254 246 254 254 260 268 267 272 269 268 271 275 274 274 282 286 296
256 249 265 266 255 256 261 260 265 269 269 274 278 273 268 269 276 280 279 283 286 290
257 258 260 268 283 290 282 281 282 284 282 281 285 268 262 271 279 281 288 294 300 291
261 264 274 284 292 296 293 292 293 294 294 289 283 273 270 272 271 278 283 292 302 300
282 278 279 291 295 297 298 298 299 300 301 297 285 280 278 274 276 274 280 295 300 307